When you browse on this site, cookies collect data to enhance your experience and personalize the content and advertising you see.
Visit our Privacy Policy to learn more. By continuing to use the site, you agree to this use of cookies and data.
  • In Portugal
  • List of Countries
  • For 7 days
  • Water Temperature
  • Weather Map
  • Weather Widgets
  • user-avatar
    Login

    Hourly Weather Lubenkino

    Today, 24 August, Saturday

    Time Temperature Precipitation Wind Pressure Humidity
    00:00 +13°C° 0 mm 2 mps 749 mmHg 92%
    01:00 +13°C° 0 mm 2 mps 749 mmHg 94%
    02:00 +12°C° 0 mm 2 mps 749 mmHg 95%
    03:00 +13°C° 0 mm 2 mps 749 mmHg 94%
    04:00 +12°C° 0 mm 3 mps 749 mmHg 93%
    05:00 +12°C° 0 mm 3 mps 748 mmHg 92%
    06:00 +13°C° 0 mm 3 mps 748 mmHg 86%
    07:00 +15°C° 0 mm 4 mps 748 mmHg 80%
    08:00 +17°C° 0 mm 4 mps 748 mmHg 73%
    09:00 +18°C° 0 mm 4 mps 748 mmHg 70%
    10:00 +19°C° 0 mm 4 mps 748 mmHg 66%
    11:00 +20°C° 0 mm 5 mps 748 mmHg 62%
    12:00 +21°C° 0.1 mm 5 mps 748 mmHg 63%
    13:00 +21°C° 0.1 mm 5 mps 747 mmHg 64%
    14:00 +22°C° 0.1 mm 5 mps 747 mmHg 66%
    15:00 +21°C° 0.2 mm 4 mps 747 mmHg 71%
    16:00 +20°C° 0.2 mm 3 mps 747 mmHg 77%
    17:00 +19°C° 0.2 mm 3 mps 747 mmHg 82%
    18:00 +18°C° 0 mm 2 mps 747 mmHg 86%
    19:00 +16°C° 0 mm 2 mps 747 mmHg 90%
    20:00 +15°C° 0 mm 2 mps 748 mmHg 94%
    21:00 +14°C° 0 mm 2 mps 748 mmHg 94%
    22:00 +14°C° 0 mm 2 mps 748 mmHg 93%
    23:00 +13°C° 0 mm 2 mps 748 mmHg 93%

    Tomorrow, 25 August, Sunday

    Time Temperature Precipitation Wind Pressure Humidity
    00:00 +13°C° 0 mm 1 mps 749 mmHg 94%
    01:00 +12°C° 0 mm 1 mps 749 mmHg 95%
    02:00 +11°C° 0 mm 1 mps 749 mmHg 96%
    03:00 +11°C° 0 mm 1 mps 749 mmHg 97%
    04:00 +10°C° 0 mm 1 mps 750 mmHg 97%
    05:00 +10°C° 0 mm 1 mps 750 mmHg 97%
    06:00 +11°C° 0 mm 1 mps 750 mmHg 93%
    07:00 +13°C° 0 mm 2 mps 750 mmHg 88%
    08:00 +14°C° 0 mm 2 mps 751 mmHg 84%
    09:00 +16°C° 0 mm 2 mps 751 mmHg 75%
    10:00 +18°C° 0 mm 2 mps 751 mmHg 66%
    11:00 +20°C° 0 mm 2 mps 751 mmHg 57%
    12:00 +21°C° 0 mm 1 mps 751 mmHg 55%
    13:00 +22°C° 0 mm 1 mps 751 mmHg 52%
    14:00 +23°C° 0 mm 1 mps 751 mmHg 49%
    15:00 +22°C° 0 mm 1 mps 751 mmHg 53%
    16:00 +22°C° 0 mm 1 mps 751 mmHg 58%
    17:00 +21°C° 0 mm 1 mps 751 mmHg 63%
    18:00 +19°C° 0 mm 1 mps 751 mmHg 69%
    19:00 +16°C° 0 mm 1 mps 751 mmHg 76%
    20:00 +14°C° 0 mm 1 mps 751 mmHg 83%
    21:00 +13°C° 0 mm 1 mps 751 mmHg 85%
    22:00 +13°C° 0 mm 1 mps 751 mmHg 87%
    23:00 +11°C° 0 mm 0 mps 751 mmHg 90%

    Day after tomorrow, 26 August, Monday

    Time Temperature Precipitation Wind Pressure Humidity
    00:00 +11°C° 0 mm 0 mps 751 mmHg 91%
    01:00 +11°C° 0 mm 0 mps 751 mmHg 92%
    02:00 +10°C° 0 mm 0 mps 751 mmHg 92%
    03:00 +10°C° 0 mm 0 mps 751 mmHg 93%
    04:00 +11°C° 0 mm 1 mps 751 mmHg 94%
    05:00 +11°C° 0 mm 1 mps 751 mmHg 94%
    06:00 +13°C° 0 mm 1 mps 751 mmHg 87%
    07:00 +15°C° 0 mm 1 mps 751 mmHg 79%
    08:00 +18°C° 0 mm 1 mps 751 mmHg 72%
    09:00 +19°C° 0 mm 1 mps 751 mmHg 66%
    10:00 +20°C° 0 mm 2 mps 751 mmHg 61%
    11:00 +21°C° 0 mm 2 mps 750 mmHg 55%
    12:00 +23°C° 0 mm 2 mps 750 mmHg 54%
    13:00 +23°C° 0 mm 2 mps 750 mmHg 53%
    14:00 +22°C° 0 mm 3 mps 749 mmHg 52%
    15:00 +23°C° 0 mm 2 mps 749 mmHg 57%
    16:00 +21°C° 0 mm 2 mps 749 mmHg 62%
    17:00 +21°C° 0 mm 2 mps 748 mmHg 67%
    18:00 +19°C° 0 mm 2 mps 748 mmHg 72%
    19:00 +17°C° 0 mm 2 mps 748 mmHg 78%
    20:00 +15°C° 0 mm 2 mps 747 mmHg 83%
    21:00 +15°C° 0 mm 2 mps 747 mmHg 84%
    22:00 +15°C° 0 mm 2 mps 747 mmHg 86%
    23:00 +15°C° 0 mm 2 mps 747 mmHg 87%

    27 August, Tuesday

    Time Temperature Precipitation Wind Pressure Humidity
    00:00 +14°C° 0 mm 2 mps 747 mmHg 90%
    01:00 +14°C° 0 mm 2 mps 746 mmHg 92%
    02:00 +14°C° 0 mm 2 mps 746 mmHg 94%
    03:00 +14°C° 0 mm 2 mps 746 mmHg 96%
    04:00 +14°C° 0 mm 2 mps 746 mmHg 97%
    05:00 +14°C° 0 mm 2 mps 746 mmHg 98%
    06:00 +15°C° 0 mm 2 mps 746 mmHg 94%
    07:00 +16°C° 0 mm 2 mps 746 mmHg 89%
    08:00 +17°C° 0 mm 3 mps 746 mmHg 85%
    09:00 +18°C° 0 mm 3 mps 746 mmHg 77%
    10:00 +19°C° 0 mm 4 mps 746 mmHg 68%
    11:00 +20°C° 0 mm 4 mps 747 mmHg 60%
    12:00 +20°C° 0 mm 4 mps 747 mmHg 57%
    13:00 +20°C° 0 mm 4 mps 747 mmHg 54%
    14:00 +20°C° 0 mm 4 mps 747 mmHg 51%
    15:00 +20°C° 0 mm 4 mps 747 mmHg 55%
    16:00 +19°C° 0 mm 4 mps 747 mmHg 59%
    17:00 +18°C° 0 mm 3 mps 747 mmHg 63%
    18:00 +17°C° 0 mm 3 mps 747 mmHg 71%
    19:00 +14°C° 0 mm 3 mps 748 mmHg 78%
    20:00 +13°C° 0 mm 2 mps 748 mmHg 86%
    21:00 +13°C° 0 mm 2 mps 748 mmHg 87%
    22:00 +12°C° 0 mm 2 mps 749 mmHg 88%
    23:00 +10°C° 0 mm 2 mps 749 mmHg 90%

    28 August, Wednesday

    Time Temperature Precipitation Wind Pressure Humidity
    00:00 +10°C° 0 mm 2 mps 749 mmHg 90%
    01:00 +10°C° 0 mm 1 mps 749 mmHg 91%
    02:00 +9°C° 0 mm 1 mps 750 mmHg 91%
    03:00 +9°C° 0 mm 1 mps 750 mmHg 88%
    04:00 +8°C° 0 mm 1 mps 750 mmHg 85%
    05:00 +8°C° 0 mm 1 mps 750 mmHg 83%
    06:00 +10°C° 0 mm 1 mps 751 mmHg 74%
    07:00 +10°C° 0 mm 2 mps 751 mmHg 66%
    08:00 +13°C° 0 mm 2 mps 751 mmHg 58%
    09:00 +15°C° 0 mm 2 mps 751 mmHg 55%
    10:00 +16°C° 0 mm 3 mps 751 mmHg 53%
    11:00 +17°C° 0 mm 3 mps 751 mmHg 50%
    12:00 +18°C° 0 mm 3 mps 751 mmHg 50%
    13:00 +18°C° 0 mm 3 mps 751 mmHg 49%
    14:00 +19°C° 0 mm 3 mps 750 mmHg 49%
    15:00 +18°C° 0 mm 3 mps 750 mmHg 53%
    16:00 +18°C° 0 mm 2 mps 750 mmHg 57%
    17:00 +18°C° 0 mm 2 mps 750 mmHg 61%
    18:00 +16°C° 0 mm 2 mps 750 mmHg 68%
    19:00 +14°C° 0 mm 2 mps 750 mmHg 75%
    20:00 +12°C° 0 mm 1 mps 750 mmHg 82%
    21:00 +11°C° 0 mm 1 mps 750 mmHg 85%
    22:00 +11°C° 0 mm 1 mps 750 mmHg 87%
    23:00 +10°C° 0 mm 1 mps 750 mmHg 90%

    29 August, Thursday

    Time Temperature Precipitation Wind Pressure Humidity
    00:00 +10°C° 0 mm 1 mps 750 mmHg 91%
    01:00 +8°C° 0 mm 0 mps 750 mmHg 92%
    02:00 +8°C° 0 mm 0 mps 750 mmHg 93%
    03:00 +8°C° 0 mm 0 mps 750 mmHg 93%
    04:00 +8°C° 0 mm 0 mps 751 mmHg 92%
    05:00 +8°C° 0 mm 0 mps 751 mmHg 92%
    06:00 +10°C° 0 mm 0 mps 751 mmHg 85%
    07:00 +12°C° 0 mm 0 mps 751 mmHg 77%
    08:00 +15°C° 0 mm 1 mps 751 mmHg 70%
    09:00 +16°C° 0 mm 1 mps 750 mmHg 67%
    10:00 +18°C° 0 mm 1 mps 750 mmHg 64%
    11:00 +19°C° 0 mm 1 mps 750 mmHg 61%
    12:00 +20°C° 0 mm 1 mps 750 mmHg 60%
    13:00 +21°C° 0 mm 1 mps 750 mmHg 59%
    14:00 +21°C° 0 mm 1 mps 750 mmHg 58%
    15:00 +21°C° 0.1 mm 1 mps 750 mmHg 64%
    16:00 +20°C° 0.1 mm 1 mps 749 mmHg 71%
    17:00 +19°C° 0.1 mm 1 mps 749 mmHg 77%
    18:00 +18°C° 0.1 mm 1 mps 749 mmHg 81%
    19:00 +16°C° 0.1 mm 1 mps 749 mmHg 85%
    20:00 +15°C° 0.1 mm 1 mps 749 mmHg 89%
    21:00 +15°C° 0 mm 1 mps 749 mmHg 90%
    22:00 +14°C° 0 mm 1 mps 750 mmHg 91%
    23:00 +14°C° 0 mm 1 mps 750 mmHg 92%
    Show more